Time,TemperatureF,DewpointF,PressureIn,WindDirection,WindDirectionDegrees,WindSpeedMPH,WindSpeedGustMPH,Humidity,HourlyPrecipIn,Conditions,Clouds,dailyrainin,SoftwareType,DateUTC
2013-04-27 00:11:00,50.4,46.0,30.25,SE,132,2.0,2.0,85,0.00,,,0.00,weatherlink.com 1.10,2013-04-27 05:11:00,
2013-04-27 00:26:00,50.3,46.0,30.25,SE,146,1.0,4.0,86,0.00,,,0.00,weatherlink.com 1.10,2013-04-27 05:26:00,
2013-04-27 00:41:00,49.8,46.0,30.25,West,260,0.0,2.0,87,0.00,,,0.00,weatherlink.com 1.10,2013-04-27 05:41:00,
2013-04-27 00:56:00,49.5,46.0,30.25,West,260,0.0,1.0,87,0.00,,,0.00,weatherlink.com 1.10,2013-04-27 05:56:00,
2013-04-27 01:11:00,50.1,47.0,30.26,NNW,331,0.0,1.0,88,0.00,,,0.00,weatherlink.com 1.10,2013-04-27 06:11:00,
2013-04-27 01:26:00,50.2,47.0,30.25,SE,130,1.0,2.0,87,0.00,,,0.00,weatherlink.com 1.10,2013-04-27 06:26:00,
2013-04-27 01:41:00,50.2,47.0,30.25,SSE,155,1.0,5.0,87,0.00,,,0.00,weatherlink.com 1.10,2013-04-27 06:41:00,
2013-04-27 01:56:00,50.2,47.0,30.25,SSE,158,1.0,5.0,87,0.00,,,0.00,weatherlink.com 1.10,2013-04-27 06:56:00,
2013-04-27 02:11:00,50.1,46.0,30.24,SW,214,0.0,5.0,87,0.00,,,0.00,weatherlink.com 1.10,2013-04-27 07:11:00,
2013-04-27 02:26:00,50.0,47.0,30.23,SE,143,1.0,4.0,88,0.00,,,0.00,weatherlink.com 1.10,2013-04-27 07:26:00,
2013-04-27 02:41:00,49.9,47.0,30.22,ESE,115,2.0,2.0,88,0.00,,,0.00,weatherlink.com 1.10,2013-04-27 07:41:00,
2013-04-27 02:56:00,49.8,46.0,30.21,SSE,148,0.0,2.0,88,0.00,,,0.00,weatherlink.com 1.10,2013-04-27 07:56:00,
2013-04-27 03:11:00,49.6,47.0,30.21,SE,129,1.0,1.0,89,0.00,,,0.00,weatherlink.com 1.10,2013-04-27 08:11:00,
2013-04-27 03:26:00,49.5,46.0,30.21,SE,146,1.0,3.0,89,0.00,,,0.00,weatherlink.com 1.10,2013-04-27 08:26:00,
2013-04-27 03:41:00,49.0,47.0,30.21,SE,124,0.0,2.0,91,0.00,,,0.00,weatherlink.com 1.10,2013-04-27 08:41:00,
2013-04-27 03:56:00,48.8,47.0,30.21,SSE,149,2.0,3.0,92,0.00,,,0.00,weatherlink.com 1.10,2013-04-27 08:56:00,
2013-04-27 04:11:00,48.8,47.0,30.20,SE,138,1.0,3.0,93,0.00,,,0.00,weatherlink.com 1.10,2013-04-27 09:11:00,
2013-04-27 04:26:00,48.7,47.0,30.20,ESE,120,2.0,4.0,93,0.00,,,0.00,weatherlink.com 1.10,2013-04-27 09:26:00,
2013-04-27 04:41:00,48.7,47.0,30.20,ESE,113,2.0,3.0,94,0.00,,,0.00,weatherlink.com 1.10,2013-04-27 09:41:00,
2013-04-27 04:56:00,48.7,47.0,30.19,ESE,115,1.0,2.0,94,0.00,,,0.00,weatherlink.com 1.10,2013-04-27 09:56:00,
2013-04-27 05:11:00,48.5,47.0,30.18,SE,134,0.0,1.0,95,0.00,,,0.00,weatherlink.com 1.10,2013-04-27 10:11:00,
2013-04-27 05:27:00,48.5,47.0,30.18,SE,124,0.0,3.0,95,0.00,,,0.00,weatherlink.com 1.10,2013-04-27 10:27:00,
2013-04-27 05:42:00,48.4,47.0,30.17,East,91,2.0,3.0,96,0.01,,,0.01,weatherlink.com 1.10,2013-04-27 10:42:00,
2013-04-27 05:57:00,48.3,47.0,30.16,SE,127,1.0,4.0,96,0.01,,,0.01,weatherlink.com 1.10,2013-04-27 10:57:00,
2013-04-27 06:12:00,48.3,47.0,30.16,ESE,117,2.0,5.0,96,0.01,,,0.01,weatherlink.com 1.10,2013-04-27 11:12:00,
2013-04-27 06:27:00,48.4,47.0,30.17,SSE,150,1.0,4.0,96,0.01,,,0.01,weatherlink.com 1.10,2013-04-27 11:27:00,
2013-04-27 06:42:00,48.5,48.0,30.17,ESE,102,4.0,5.0,96,0.00,,,0.01,weatherlink.com 1.10,2013-04-27 11:42:00,
2013-04-27 06:57:00,48.5,48.0,30.16,ESE,108,1.0,4.0,97,0.01,,,0.02,weatherlink.com 1.10,2013-04-27 11:57:00,
2013-04-27 07:12:00,48.6,48.0,30.16,SE,127,2.0,4.0,97,0.02,,,0.03,weatherlink.com 1.10,2013-04-27 12:12:00,
2013-04-27 07:27:00,48.7,48.0,30.16,SE,132,4.0,6.0,97,0.02,,,0.03,weatherlink.com 1.10,2013-04-27 12:27:00,
2013-04-27 07:42:00,48.8,48.0,30.16,ESE,122,2.0,5.0,97,0.02,,,0.03,weatherlink.com 1.10,2013-04-27 12:42:00,
2013-04-27 07:57:00,48.9,48.0,30.16,ESE,118,0.0,4.0,97,0.01,,,0.03,weatherlink.com 1.10,2013-04-27 12:57:00,
2013-04-27 08:12:00,49.1,48.0,30.16,ESE,111,3.0,6.0,97,0.00,,,0.03,weatherlink.com 1.10,2013-04-27 13:12:00,
2013-04-27 08:27:00,49.3,48.0,30.16,ESE,108,6.0,7.0,96,0.00,,,0.03,weatherlink.com 1.10,2013-04-27 13:27:00,
2013-04-27 08:42:00,49.3,48.0,30.16,ESE,120,5.0,7.0,96,0.00,,,0.03,weatherlink.com 1.10,2013-04-27 13:42:00,
2013-04-27 08:57:00,49.5,49.0,30.15,East,101,6.0,6.0,97,0.01,,,0.04,weatherlink.com 1.10,2013-04-27 13:57:00,
2013-04-27 09:12:00,49.9,49.0,30.14,East,96,3.0,6.0,97,0.01,,,0.04,weatherlink.com 1.10,2013-04-27 14:12:00,
2013-04-27 09:27:00,50.2,49.0,30.13,ESE,120,4.0,6.0,97,0.01,,,0.04,weatherlink.com 1.10,2013-04-27 14:27:00,
2013-04-27 09:43:00,50.2,49.0,30.14,ESE,104,5.0,6.0,97,0.02,,,0.05,weatherlink.com 1.10,2013-04-27 14:43:00,
2013-04-27 09:57:00,50.3,49.0,30.13,ESE,110,2.0,6.0,96,0.03,,,0.07,weatherlink.com 1.10,2013-04-27 14:57:00,
2013-04-27 10:12:00,50.5,49.0,30.13,East,94,4.0,5.0,96,0.04,,,0.08,weatherlink.com 1.10,2013-04-27 15:12:00,
2013-04-27 10:27:00,50.8,50.0,30.13,SE,133,3.0,5.0,96,0.05,,,0.09,weatherlink.com 1.10,2013-04-27 15:27:00,
2013-04-27 10:42:00,50.9,50.0,30.12,ESE,120,3.0,6.0,96,0.05,,,0.10,weatherlink.com 1.10,2013-04-27 15:42:00,
2013-04-27 10:57:00,51.3,50.0,30.13,ESE,109,5.0,7.0,95,0.03,,,0.10,weatherlink.com 1.10,2013-04-27 15:57:00,
2013-04-27 11:12:00,51.4,50.0,30.13,East,94,4.0,7.0,95,0.02,,,0.10,weatherlink.com 1.10,2013-04-27 16:12:00,
2013-04-27 11:27:00,51.3,50.0,30.13,SE,127,1.0,5.0,95,0.01,,,0.10,weatherlink.com 1.10,2013-04-27 16:27:00,
2013-04-27 11:42:00,51.5,50.0,30.13,ESE,105,2.0,4.0,95,0.01,,,0.11,weatherlink.com 1.10,2013-04-27 16:42:00,
2013-04-27 11:57:00,51.6,50.0,30.12,East,101,1.0,5.0,95,0.01,,,0.11,weatherlink.com 1.10,2013-04-27 16:57:00,
2013-04-27 12:12:00,51.7,50.0,30.12,East,98,4.0,4.0,95,0.01,,,0.11,weatherlink.com 1.10,2013-04-27 17:12:00,
2013-04-27 12:27:00,51.9,51.0,30.11,ESE,105,5.0,7.0,95,0.01,,,0.11,weatherlink.com 1.10,2013-04-27 17:27:00,
2013-04-27 12:42:00,52.1,51.0,30.10,ESE,107,4.0,6.0,95,0.00,,,0.11,weatherlink.com 1.10,2013-04-27 17:42:00,
2013-04-27 12:57:00,52.2,51.0,30.09,East,96,1.0,8.0,94,0.00,,,0.11,weatherlink.com 1.10,2013-04-27 17:57:00,
2013-04-27 13:12:00,52.3,51.0,30.09,ESE,108,3.0,6.0,95,0.00,,,0.11,weatherlink.com 1.10,2013-04-27 18:12:00,
2013-04-27 13:27:00,52.3,51.0,30.08,ENE,65,0.0,4.0,95,0.00,,,0.11,weatherlink.com 1.10,2013-04-27 18:27:00,
2013-04-27 13:42:00,52.5,51.0,30.08,East,92,4.0,5.0,95,0.00,,,0.11,weatherlink.com 1.10,2013-04-27 18:42:00,
2013-04-27 13:57:00,52.6,51.0,30.07,ENE,76,2.0,4.0,95,0.00,,,0.11,weatherlink.com 1.10,2013-04-27 18:57:00,
2013-04-27 14:12:00,52.5,51.0,30.07,East,84,2.0,3.0,96,0.00,,,0.11,weatherlink.com 1.10,2013-04-27 19:12:00,
2013-04-27 14:27:00,52.5,51.0,30.06,ENE,67,2.0,6.0,96,0.00,,,0.11,weatherlink.com 1.10,2013-04-27 19:27:00,
2013-04-27 14:42:00,52.5,51.0,30.05,ESE,115,0.0,3.0,96,0.01,,,0.12,weatherlink.com 1.10,2013-04-27 19:42:00,
2013-04-27 14:57:00,52.4,51.0,30.05,ESE,102,1.0,4.0,96,0.01,,,0.12,weatherlink.com 1.10,2013-04-27 19:57:00,
2013-04-27 15:12:00,52.5,52.0,30.04,East,92,1.0,3.0,97,0.01,,,0.12,weatherlink.com 1.10,2013-04-27 20:12:00,
2013-04-27 15:27:00,52.5,52.0,30.03,East,101,2.0,4.0,97,0.02,,,0.13,weatherlink.com 1.10,2013-04-27 20:27:00,
2013-04-27 15:43:00,52.3,52.0,30.03,ESE,105,2.0,4.0,97,0.02,,,0.14,weatherlink.com 1.10,2013-04-27 20:43:00,
2013-04-27 15:58:00,52.3,52.0,30.02,ESE,123,4.0,4.0,97,0.03,,,0.15,weatherlink.com 1.10,2013-04-27 20:58:00,
2013-04-27 16:13:00,52.5,52.0,30.01,East,97,0.0,5.0,97,0.03,,,0.15,weatherlink.com 1.10,2013-04-27 21:13:00,
2013-04-27 16:28:00,52.4,52.0,30.00,ESE,102,1.0,5.0,97,0.02,,,0.15,weatherlink.com 1.10,2013-04-27 21:28:00,
2013-04-27 16:43:00,52.4,52.0,30.00,ENE,67,1.0,5.0,97,0.02,,,0.16,weatherlink.com 1.10,2013-04-27 21:43:00,
2013-04-27 16:58:00,52.5,52.0,30.00,East,96,1.0,4.0,98,0.02,,,0.17,weatherlink.com 1.10,2013-04-27 21:58:00,
2013-04-27 17:13:00,52.5,52.0,30.00,NE,46,2.0,5.0,98,0.05,,,0.20,weatherlink.com 1.10,2013-04-27 22:13:00,
2013-04-27 17:28:00,52.5,52.0,29.98,ENE,76,1.0,6.0,98,0.09,,,0.24,weatherlink.com 1.10,2013-04-27 22:28:00,
2013-04-27 17:43:00,52.5,52.0,29.99,NNE,32,4.0,4.0,98,0.10,,,0.26,weatherlink.com 1.10,2013-04-27 22:43:00,
2013-04-27 17:58:00,52.5,52.0,29.98,SE,124,0.0,2.0,98,0.13,,,0.30,weatherlink.com 1.10,2013-04-27 22:58:00,
2013-04-27 18:13:00,52.4,52.0,29.98,ENE,57,2.0,4.0,98,0.14,,,0.34,weatherlink.com 1.10,2013-04-27 23:13:00,
2013-04-27 18:28:00,52.3,52.0,29.97,NNE,27,0.0,4.0,98,0.14,,,0.38,weatherlink.com 1.10,2013-04-27 23:28:00,
2013-04-27 18:43:00,52.2,52.0,29.97,NNW,343,1.0,3.0,98,0.14,,,0.40,weatherlink.com 1.10,2013-04-27 23:43:00,
2013-04-27 18:58:00,52.1,52.0,29.98,North,352,0.0,2.0,98,0.14,,,0.44,weatherlink.com 1.10,2013-04-27 23:58:00,
2013-04-27 19:13:00,52.1,52.0,29.98,North,4,0.0,2.0,98,0.15,,,0.49,weatherlink.com 1.10,2013-04-28 00:13:00,
2013-04-27 19:28:00,52.0,52.0,29.97,North,7,3.0,3.0,98,0.15,,,0.53,weatherlink.com 1.10,2013-04-28 00:28:00,
2013-04-27 19:43:00,51.8,51.0,29.97,North,349,2.0,3.0,98,0.14,,,0.54,weatherlink.com 1.10,2013-04-28 00:43:00,
2013-04-27 19:58:00,51.7,51.0,29.96,North,4,2.0,4.0,98,0.13,,,0.57,weatherlink.com 1.10,2013-04-28 00:58:00,
2013-04-27 20:13:00,51.6,51.0,29.96,NNE,26,1.0,3.0,99,0.12,,,0.61,weatherlink.com 1.10,2013-04-28 01:13:00,
2013-04-27 20:28:00,51.5,51.0,29.96,North,11,2.0,2.0,99,0.10,,,0.63,weatherlink.com 1.10,2013-04-28 01:28:00,
2013-04-27 20:43:00,51.4,51.0,29.96,NNE,32,1.0,3.0,99,0.12,,,0.66,weatherlink.com 1.10,2013-04-28 01:43:00,
2013-04-27 20:58:00,51.5,51.0,29.96,North,9,1.0,2.0,99,0.11,,,0.68,weatherlink.com 1.10,2013-04-28 01:58:00,
2013-04-27 21:13:00,51.4,51.0,29.96,NNW,339,1.0,2.0,99,0.10,,,0.71,weatherlink.com 1.10,2013-04-28 02:13:00,
2013-04-27 21:28:00,51.4,51.0,29.96,North,355,1.0,2.0,99,0.09,,,0.73,weatherlink.com 1.10,2013-04-28 02:28:00,
2013-04-27 21:43:00,51.4,51.0,29.96,North,359,1.0,3.0,99,0.07,,,0.73,weatherlink.com 1.10,2013-04-28 02:43:00,
2013-04-27 21:58:00,51.4,51.0,29.96,NNW,345,2.0,3.0,99,0.06,,,0.74,weatherlink.com 1.10,2013-04-28 02:58:00,
2013-04-27 22:13:00,51.4,51.0,29.95,North,10,1.0,2.0,99,0.03,,,0.74,weatherlink.com 1.10,2013-04-28 03:13:00,
2013-04-27 22:28:00,51.4,51.0,29.95,North,360,1.0,4.0,99,0.01,,,0.74,weatherlink.com 1.10,2013-04-28 03:28:00,
2013-04-27 22:43:00,51.4,51.0,29.94,NNW,340,3.0,3.0,99,0.01,,,0.74,weatherlink.com 1.10,2013-04-28 03:43:00,
2013-04-27 22:58:00,51.5,51.0,29.94,NNE,29,1.0,3.0,99,0.00,,,0.74,weatherlink.com 1.10,2013-04-28 03:58:00,
2013-04-27 23:13:00,51.5,51.0,29.93,NNE,22,3.0,4.0,99,0.01,,,0.75,weatherlink.com 1.10,2013-04-28 04:13:00,
2013-04-27 23:28:00,51.4,51.0,29.93,North,6,2.0,4.0,99,0.01,,,0.75,weatherlink.com 1.10,2013-04-28 04:28:00,
2013-04-27 23:43:00,51.4,51.0,29.93,NNW,347,3.0,4.0,99,0.01,,,0.75,weatherlink.com 1.10,2013-04-28 04:43:00,
2013-04-27 23:58:00,51.5,51.0,29.92,North,356,3.0,4.0,99,0.01,,,0.75,weatherlink.com 1.10,2013-04-28 04:58:00,